This is the latest recevied weather packets stored in our database for station/object KD4KKF. If no packets are shown the sender has not sent any weather packets the latest 10 day(s).
| Time | Temp. | Humidity | Pressure | Rain* | Wind** | Luminosity | Snow |
|---|---|---|---|---|---|---|---|
| 1777832829 | 20.56° C | 42% | 1020.1 hPa | 0 mm | - | 770 W/m² | - |
| 1777832528 | 20° C | 40% | 1020.4 hPa | 0 mm | - | 766 W/m² | - |
| 1777832224 | 20° C | 43% | 1020.4 hPa | 0 mm | - | 781 W/m² | - |
| 1777831921 | 20.56° C | 41% | 1020.6 hPa | 0 mm | - | 796 W/m² | - |
| 1777831617 | 20° C | 44% | 1020.4 hPa | 0 mm | - | 789 W/m² | - |
| 1777831316 | 20° C | 45% | 1020.5 hPa | 0 mm | - | 794 W/m² | - |
| 1777831012 | 20° C | 43% | 1020.6 hPa | 0 mm | - | 785 W/m² | - |
| 1777830710 | 20° C | 43% | 1020.8 hPa | 0 mm | - | 787 W/m² | - |
| 1777830406 | 20° C | 42% | 1020.8 hPa | 0 mm | - | 790 W/m² | - |
| 1777830103 | 20° C | 46% | 1020.8 hPa | 0 mm | - | 790 W/m² | - |
| 1777829798 | 19.44° C | 41% | 1020.9 hPa | 0 mm | - | 803 W/m² | - |
| 1777829495 | 20° C | 41% | 1020.9 hPa | 0 mm | - | 791 W/m² | - |
| 1777829192 | 19.44° C | 41% | 1021 hPa | 0 mm | - | 781 W/m² | - |
| 1777828889 | 19.44° C | 39% | 1021.1 hPa | 0 mm | - | 783 W/m² | - |
| 1777828580 | 19.44° C | 41% | 1021.1 hPa | 0 mm | - | 789 W/m² | - |
| 1777828278 | 19.44° C | 41% | 1021.3 hPa | 0 mm | - | 785 W/m² | - |
| 1777827975 | 19.44° C | 42% | 1021.1 hPa | 0 mm | - | 777 W/m² | - |
| 1777827671 | 18.89° C | 43% | 1021.4 hPa | 0 mm | - | 780 W/m² | - |
| 1777827368 | 19.44° C | 43% | 1021.6 hPa | 0 mm | - | 785 W/m² | - |
| 1777827064 | 18.89° C | 44% | 1021.5 hPa | 0 mm | - | 783 W/m² | - |
| 1777826762 | 18.89° C | 44% | 1021.9 hPa | 0 mm | - | 787 W/m² | - |
| 1777826458 | 19.44° C | 45% | 1021.6 hPa | 0 mm | - | 771 W/m² | - |
| 1777826155 | 19.44° C | 46% | 1021.5 hPa | 0 mm | - | 776 W/m² | - |
| 1777825852 | 19.44° C | 47% | 1021.7 hPa | 0 mm | - | 747 W/m² | - |
| 1777825550 | 17.78° C | 46% | 1021.7 hPa | 0 mm | - | 733 W/m² | - |
* Rain latest hour (hover to see other rain measurements)
** Current wind speed in m/s (hover to see current wind gust speed)